"Pseudo-MPEC" for CEJK0G2

Created 2026 Apr 17 11:35:10 UT using Find_Orb

Click here for an explanation of pseudo-MPECs

 
 Astrometry: 
     CEJK0G2*1C2026 04 16.41330316 28 07.738+05 27 30.13   ~4GAo 20.91GVNEOCPG96
     CEJK0G2 1C2026 04 16.41847016 28 05.441+05 27 28.44   ~4GAo 20.73GVNEOCPG96
     CEJK0G2 1C2026 04 16.42363216 28 03.101+05 27 26.21   ~4GAo 20.94GVNEOCPG96
     CEJK0G2 1C2026 04 16.42879716 28 00.728+05 27 24.48   ~4GAo 20.62GVNEOCPG96
     CEJK0G2  C2026 04 16.44395016 27 53.532+05 27 15.41   ~4GBZ 20.5 GWNEOCPH01
     CEJK0G2  C2026 04 16.44739116 27 51.989+05 27 14.04   ~4GBZ 20.7 GWNEOCPH01
     CEJK0G2 1C2026 04 16.44794616 27 52.124+05 27 17.06   ~4GB5 21.25GVNEOCPI52
     CEJK0G2 1C2026 04 16.44892016 27 51.660+05 27 16.31   ~4GB5 20.86GVNEOCPI52
     CEJK0G2 1C2026 04 16.44989616 27 51.260+05 27 15.23   ~4GB5 20.62GVNEOCPI52
     CEJK0G2 1C2026 04 16.45086316 27 50.821+05 27 16.09   ~4GB5 21.00GVNEOCPI52
     CEJK0G2  C2026 04 16.45960716 27 46.513+05 27 09.12   ~4GBZ 20.2 GWNEOCPH01
     CEJK0G2  C2026 04 16.46584316 27 43.733+05 27 06.56   ~4GBZ 20.6 GWNEOCPH01
     CEJK0G2 1C2026 04 16.47816416 27 38.570+05 27 04.07   ~4GBo 21.09GVNEOCPI52
     CEJK0G2 1C2026 04 16.47913516 27 38.153+05 27 03.71   ~4GBo 20.85GVNEOCPI52
     CEJK0G2 1C2026 04 16.48010516 27 37.717+05 27 03.24   ~4GBo 20.70GVNEOCPI52
     CEJK0G2 1C2026 04 16.48106716 27 37.271+05 27 02.95   ~4GBo 20.90GVNEOCPI52
     CEJK0G2 KB2026 04 17.08037316 23 45.98 +05 22 50.9    ~4H2Z 21.2 GVNEOCPL01
     CEJK0G2 IB2026 04 17.08336716 23 44.80 +05 22 49.6    ~4H2Z 20.2 GVNEOCPL01
     CEJK0G2 IB2026 04 17.08613916 23 43.66 +05 22 48.7    ~4H2Z 20.3 GVNEOCPL01
     CEJK0G2 0B2026 04 17.09806616 23 38.238+05 24 46.33   ~4HBK       WNEOCPM21
     CEJK0G2 0B2026 04 17.14140016 23 20.481+05 24 28.79   ~4HBK 21.2 GWNEOCPM21
     CEJK0G2 |C2026 04 17.24612016 22 47.460+05 23 59.00   ~4H75 20.5 GVNEOCP807
     CEJK0G2 |C2026 04 17.25134016 22 45.330+05 23 57.70   ~4H75 20.8 GVNEOCP807
     CEJK0G2 |C2026 04 17.26179016 22 41.140+05 23 53.30   ~4H75 21.1 GVNEOCP807
     CEJK0G2 |C2026 04 17.26701016 22 39.030+05 23 52.00   ~4H75 21.2 GVNEOCP807
     CEJK0G2 |C2026 04 17.27223016 22 36.940+05 23 50.20   ~4H75 21.3 GVNEOCP807
     CEJK0G2 KC2026 04 17.32829216 22 16.20 +05 21 25.2    ~4H8Z       VNEOCPH21
     CEJK0G2 KC2026 04 17.33118216 22 15.06 +05 21 24.5    ~4H8Z 21.2 GVNEOCPH21
     CEJK0G2 1C2026 04 17.34810116 22 10.744+05 21 27.79   ~4H95 20.67GVNEOCPI52
     CEJK0G2 1C2026 04 17.35897216 22 06.463+05 21 22.79   ~4H95 20.76GVNEOCPI52

Station data:
(807) Cerro Tololo Observatory, La Serena  (S30.169133 W70.805900)  Chile.
   Observer R. Holmes. 0.61-m f/6.5 astrograph + CCD.
(G96) Mt. Lemmon Survey  (N32.442729 W110.788720)  US/Arizona.  Observer E.
   J. Christensen. Measurers T. Beuden, V. F. Carvajal, D. Fay, J. B.
   Fazekas, D. C. Fuls, A. R. Gibbs, A. D. Grauer, H. Gröller, J. K. Hogan,
   R. A. Kowalski, S. M. Larson, G. J. Leonard, D. Rankin, R. L. Seaman, F.
   C. Shelly, K. W. Wierzchoś. 1.5-m reflector + 10K CCD.
(H01) Magdalena Ridge Observatory, Socorro  (N33.984833 W107.189333)  US/New
   Mexico.  Observers W. H. Ryan, E. V. Ryan. Measurer W. H. Ryan. 2.4-m
   f/8.9 reflector + CCD.
(H21) Astronomical Research Observatory, Westfield  (N39.483054 W87.968270)
   US/Illinois.  Observer R. Holmes. Measurers S. Foglia, L. Buzzi, T.
   Linder, R. Holmes. 0.40-m f/5.32 astrograph + CCD.
(I52) Steward Observatory, Mt. Lemmon Station  (N32.442570 W110.788920)
   US/Arizona. Measurers T. Beuden, V. F. Carvajal, D. Fay, J. B. Fazekas, D.
   C. Fuls, A. R. Gibbs, A. D. Grauer, H. Gröller, J. K. Hogan, R. A.
   Kowalski, S. M. Larson, G. J. Leonard, D. Rankin, R. L. Seaman, F. C.
   Shelly, K. W. Wierzchoś. 1.0-m prime focus + CCD.
(L01) Višnjan Observatory, Tičan  (N45.290897 E13.749300)  Croatia.
   Observers K. Korlević, L. Poropat. Measurer K. Korlevic. 1.0-m f/2.9
   reflector + CCD.
(M21) Schiaparelli Southern Observatory, Hakos  (S23.236549 E16.361440)
   Namibia.  Observers A. Aletti, F. Bellini, L. Buzzi, G. Galli. Measurer L.
   Buzzi. 0.36-m f/8.4 reflector + CCD.

Orbital elements:  CEJK0G2
   Perihelion 2026 Mar 1.143461 +/- 0.112 TT =  3:26:35.0 (JD 2461100.643461)
Epoch 2026 Apr 17.0 TT = JDT 2461147.5   Earth MOID: 0.0134   Ma: 0.0960
M  18.160765028 +/- 0.19            (J2000 ecliptic)             AutoNEOCP
n   0.387582300 +/- 0.00335         Peri.  315.920748 +/- 0.019
a   1.863059643 +/- 0.0107          Node   191.910355 +/- 0.07
e   0.53253382 +/- 0.00276          Incl.    6.541441 +/- 0.030
P   2.543/928.817d         H 24.89  G  0.15   U  8.9
q 0.870917370 +/- 0.000202    Q 2.855201916 +/- 0.0216
From 30 observations 2026 Apr. 16-17 (22.7 hr); mean residual 0".36
Residuals in arcseconds: 
260416 G96  .13-  .13-    260416 H01  .06-  .04+    260417 M21  .25+  .12-    
260416 G96  .45+  .19+    260416 H01  .01+  .02+    260417 807  .04+  .32-    
260416 G96  .33+  .03-    260416 I52  .30-  .33-    260417 807  .46-  .29+    
260416 G96  .29-  .26+    260416 I52  .07-  .30-    260417 807  .31-  .24-    
260416 H01  .03+  .00     260416 I52  .12-  .37-    260417 807  .47-  .41+    
260416 H01  .04+  .02+    260416 I52  .39-  .26-    260417 807  .33-  .56+    
260416 I52  .04+  .43+    260417 L01  .14+  .16+    260417 H21  .14+  .14+    
260416 I52  .35-  .07+    260417 L01  .67+  .00     260417 H21  .18+  .51+    
260416 I52  .22+  .62-    260417 L01  .44+  .16+    260417 I52  .16+  .34-    
260416 I52  .15+  .62+    260417 M21  .79-  .26-    260417 I52  .32+  1.5-    

Ephemerides (geocentric):
Date (UTC) HH   RA             Dec           delta  r     elong  mag " sig PA
---- --------  ------------   ------------  ------ ------ -----  --- --------
2026 04 17 12  16 21 14.023   +05 21 19.94  .08238 1.0656 137.0 21.2 .105  74
2026 04 17 13  16 20 59.390   +05 21 04.07  .08263 1.0659 137.1 21.2 .121  73
2026 04 17 14  16 20 44.838   +05 20 48.21  .08289 1.0662 137.2 21.2 .138  73
2026 04 17 15  16 20 30.367   +05 20 32.37  .08315 1.0665 137.3 21.2 .156  72
2026 04 17 16  16 20 15.977   +05 20 16.56  .08341 1.0668 137.4 21.2 .174  72
2026 04 17 17  16 20 01.666   +05 20 00.77  .08366 1.0670 137.5 21.2 .192  72
2026 04 17 18  16 19 47.435   +05 19 45.00  .08392 1.0673 137.6 21.2 .211  72
2026 04 17 19  16 19 33.281   +05 19 29.25  .08418 1.0676 137.6 21.2 .231  72
2026 04 17 20  16 19 19.206   +05 19 13.52  .08444 1.0679 137.7 21.2 .251  72
2026 04 17 21  16 19 05.207   +05 18 57.81  .08469 1.0682 137.8 21.2 .272  72
2026 04 17 22  16 18 51.284   +05 18 42.12  .08495 1.0685 137.9 21.2 .293  72
2026 04 17 23  16 18 37.437   +05 18 26.45  .08521 1.0688 138.0 21.2 .315  73
2026 04 18 00  16 18 23.665   +05 18 10.80  .08547 1.0691 138.1 21.2 .338  73
2026 04 18 01  16 18 09.967   +05 17 55.17  .08573 1.0694 138.2 21.2 .361  73
2026 04 18 02  16 17 56.342   +05 17 39.56  .08599 1.0697 138.2 21.2 .384  73
2026 04 18 03  16 17 42.791   +05 17 23.97  .08625 1.0700 138.3 21.3 .408  73
2026 04 18 04  16 17 29.312   +05 17 08.39  .08650 1.0703 138.4 21.3 .432  73
2026 04 18 05  16 17 15.904   +05 16 52.83  .08676 1.0706 138.5 21.3 .457  73
2026 04 18 06  16 17 02.568   +05 16 37.29  .08702 1.0708 138.6 21.3 .482  73
2026 04 18 07  16 16 49.302   +05 16 21.77  .08728 1.0711 138.7 21.3 .508  73
2026 04 18 08  16 16 36.106   +05 16 06.27  .08754 1.0714 138.7 21.3 .534  74
2026 04 18 09  16 16 22.980   +05 15 50.78  .08780 1.0717 138.8 21.3 .560  74
2026 04 18 10  16 16 09.922   +05 15 35.31  .08806 1.0720 138.9 21.3 .587  74
2026 04 18 11  16 15 56.932   +05 15 19.85  .08832 1.0723 139.0 21.3 .615  74
2026 04 18 12  16 15 44.010   +05 15 04.41  .08858 1.0726 139.1 21.3 .643  74
2026 04 18 13  16 15 31.155   +05 14 48.99  .08884 1.0729 139.1 21.3 .671  74
2026 04 18 14  16 15 18.366   +05 14 33.58  .08910 1.0732 139.2 21.3 .699  74
2026 04 18 15  16 15 05.643   +05 14 18.19  .08936 1.0735 139.3 21.3 .728  74
2026 04 18 16  16 14 52.986   +05 14 02.82  .08962 1.0738 139.4 21.3 .758  74
2026 04 18 17  16 14 40.393   +05 13 47.46  .08988 1.0741 139.5 21.3 .788  75
2026 04 18 18  16 14 27.864   +05 13 32.11  .09014 1.0744 139.5 21.3 .818  75
2026 04 18 19  16 14 15.399   +05 13 16.78  .09040 1.0747 139.6 21.3 .848  75
2026 04 18 20  16 14 02.998   +05 13 01.46  .09066 1.0750 139.7 21.3 .879  75
2026 04 18 21  16 13 50.659   +05 12 46.16  .09092 1.0752 139.8 21.3 .910  75
2026 04 18 22  16 13 38.382   +05 12 30.87  .09118 1.0755 139.9 21.3 .942  75
2026 04 18 23  16 13 26.167   +05 12 15.59  .09144 1.0758 139.9 21.3 .973  75
2026 04 19 00  16 13 14.013   +05 12 00.33  .09171 1.0761 140.0 21.4 1.01  75
2026 04 19 01  16 13 01.919   +05 11 45.08  .09197 1.0764 140.1 21.4 1.04  75
2026 04 19 02  16 12 49.886   +05 11 29.84  .09223 1.0767 140.2 21.4 1.07  75
2026 04 19 03  16 12 37.913   +05 11 14.62  .09249 1.0770 140.2 21.4 1.10  75
2026 04 19 04  16 12 25.998   +05 10 59.41  .09275 1.0773 140.3 21.4 1.14  76
2026 04 19 05  16 12 14.142   +05 10 44.21  .09301 1.0776 140.4 21.4 1.17  76
2026 04 19 06  16 12 02.345   +05 10 29.02  .09327 1.0779 140.5 21.4 1.20  76
2026 04 19 07  16 11 50.605   +05 10 13.85  .09354 1.0782 140.6 21.4 1.24  76
2026 04 19 08  16 11 38.923   +05 09 58.68  .09380 1.0785 140.6 21.4 1.27  76
2026 04 19 09  16 11 27.297   +05 09 43.53  .09406 1.0788 140.7 21.4 1.31  76
2026 04 19 10  16 11 15.728   +05 09 28.39  .09432 1.0791 140.8 21.4 1.34  76
2026 04 19 11  16 11 04.215   +05 09 13.26  .09458 1.0794 140.9 21.4 1.38  76